GW3570 Weather Reports


Display with metric or nautical units.
time (UTC)temp
F
wind
direction
speed
MPH
gust
MPH
rain 1hr
in
rain 24hr
in
rain mn
in
humidity
%
barometer
mb
20260906132059 80 29 1.0 1.0 0.00 0.00 0.00 80 1016.0
20260906131554 80 71 1.0 1.0 0.00 0.00 0.00 81 1016.2
20260906131050 79 72 0.0 0.0 0.00 0.00 0.00 82 1016.2
20260906130544 79 303 0.0 0.0 0.00 0.00 0.00 82 1016.2
20260906130039 78 221 0.0 0.0 0.00 0.00 0.00 83 1015.9
20260906125536 78 213 0.0 0.0 0.00 0.00 0.00 83 1016.0
20260906125031 78 165 0.0 0.0 0.00 0.00 0.00 84 1015.8
20260906124526 77 189 0.0 0.0 0.00 0.00 0.00 84 1015.7
20260906124021 77 175 0.0 0.0 0.00 0.00 0.00 85 1015.2
20260906123520 77 198 0.0 0.0 0.00 0.00 0.00 85 1015.3
20260906123015 76 224 0.0 0.0 0.00 0.00 0.00 86 1015.6
20260906122509 76 248 0.0 0.0 0.00 0.00 0.00 86 1015.1
20260906122006 76 323 0.0 0.0 0.00 0.00 0.00 86 1015.1
20260906121501 76 356 0.0 0.0 0.00 0.00 0.00 86 1015.1
20260906120958 76 314 0.0 0.0 0.00 0.00 0.00 86 1015.3
20260906120453 76 260 0.0 0.0 0.00 0.00 0.00 86 1015.5
20260906115949 76 226 0.0 0.0 0.00 0.00 0.00 85 1015.0
20260906115444 77 229 0.0 0.0 0.00 0.00 0.00 84 1015.0
20260906114944 77 76 0.0 0.0 0.00 0.00 0.00 84 1014.9
20260906114439 77 222 0.0 0.0 0.00 0.00 0.00 84 1015.0
20260906113935 76 292 0.0 0.0 0.00 0.00 0.00 84 1014.8
20260906113433 76 285 0.0 0.0 0.00 0.00 0.00 85 1014.9
20260906112929 75 267 0.0 0.0 0.00 0.00 0.00 86 1015.1
20260906112424 75 268 0.0 0.0 0.00 0.00 0.00 87 1015.1
20260906111920 75 290 0.0 0.0 0.00 0.00 0.00 88 1014.8
20260906111419 75 242 0.0 0.0 0.00 0.00 0.00 88 1014.9
20260906110914 75 208 0.0 0.0 0.00 0.00 0.00 88 1014.9
20260906110410 75 252 0.0 0.0 0.00 0.00 0.00 87 1014.9
20260906105909 75 289 0.0 0.0 0.00 0.00 0.00 87 1014.9
20260906105405 75 296 0.0 0.0 0.00 0.00 0.00 87 1014.9
20260906104901 75 296 0.0 0.0 0.00 0.00 0.00 86 1014.9
20260906104359 75 212 0.0 0.0 0.00 0.00 0.00 87 1014.9
20260906103858 75 247 0.0 0.0 0.00 0.00 0.00 87 1014.7
20260906103356 75 182 0.0 0.0 0.00 0.00 0.00 87 1014.8
20260906102852 75 188 0.0 0.0 0.00 0.00 0.00 88 1014.7
20260906102351 75 263 0.0 0.0 0.00 0.00 0.00 89 1014.8
20260906101846 75 216 0.0 0.0 0.00 0.00 0.00 88 1014.8
20260906101341 75 245 0.0 0.0 0.00 0.00 0.00 88 1014.7
20260906100837 75 260 0.0 0.0 0.00 0.00 0.00 89 1014.9
20260906100336 75 281 0.0 0.0 0.00 0.00 0.00 89 1014.8
20260906095831 75 288 0.0 0.0 0.00 0.00 0.00 89 1014.6
20260906095326 75 238 0.0 0.0 0.00 0.00 0.00 91 1014.6
20260906094825 75 248 0.0 0.0 0.00 0.00 0.00 91 1014.6
20260906094320 75 240 0.0 0.0 0.00 0.00 0.00 91 1014.5
20260906093817 76 245 0.0 0.0 0.00 0.00 0.00 91 1014.4
20260906093307 75 289 0.0 0.0 0.00 0.00 0.00 91 1014.3
20260906092802 76 307 0.0 0.0 0.00 0.00 0.00 90 1014.4
20260906092305 75 317 0.0 0.0 0.00 0.00 0.00 90 1014.2
20260906091758 76 293 0.0 0.0 0.00 0.00 0.00 89 1014.4
20260906091254 76 291 0.0 0.0 0.00 0.00 0.00 89 1013.9
20260906090750 76 338 0.0 0.0 0.00 0.00 0.00 89 1014.5
20260906090249 76 320 0.0 0.0 0.00 0.00 0.00 89 1014.2
20260906085749 77 30 0.0 0.0 0.00 0.00 0.00 90 1014.2
20260906085248 76 324 0.0 0.0 0.00 0.00 0.00 89 1014.3
20260906084742 76 340 0.0 0.0 0.00 0.00 0.00 89 1014.5
20260906084236 76 298 0.0 0.0 0.00 0.00 0.00 89 1013.9
20260906083731 77 173 0.0 0.0 0.00 0.00 0.00 89 1014.0
20260906083226 77 232 0.0 0.0 0.00 0.00 0.00 87 1014.0
20260906082721 76 307 0.0 0.0 0.00 0.00 0.00 87 1013.9
20260906082211 77 131 0.0 0.0 0.00 0.00 0.00 88 1013.8
20260906081707 76 277 0.0 0.0 0.00 0.00 0.00 88 1013.9
20260906081156 76 259 0.0 0.0 0.00 0.00 0.00 87 1013.8
20260906080653 76 274 0.0 0.0 0.00 0.00 0.00 87 1013.8
20260906080148 76 265 0.0 0.0 0.00 0.00 0.00 88 1013.9
20260906075642 76 238 0.0 0.0 0.00 0.00 0.00 88 1013.8
20260906075137 76 129 0.0 0.0 0.00 0.00 0.00 89 1013.8
20260906074632 76 182 0.0 0.0 0.00 0.00 0.00 89 1013.7
20260906074131 76 145 0.0 0.0 0.00 0.00 0.00 89 1013.8
20260906073626 76 232 0.0 0.0 0.00 0.00 0.00 90 1013.8
20260906073122 76 250 0.0 0.0 0.00 0.00 0.00 90 1014.0
20260906072617 76 214 0.0 0.0 0.00 0.00 0.00 90 1013.8
20260906072112 76 233 0.0 0.0 0.00 0.00 0.00 89 1014.0
20260906071608 76 262 0.0 0.0 0.00 0.00 0.00 89 1014.0
20260906071103 76 230 0.0 0.0 0.00 0.00 0.00 89 1014.2
20260906070600 76 243 0.0 0.0 0.00 0.00 0.00 89 1013.8
20260906070055 77 247 0.0 0.0 0.00 0.00 0.00 89 1014.0
20260906065554 77 217 0.0 0.0 0.00 0.00 0.00 90 1014.2
20260906065050 77 235 0.0 0.0 0.00 0.00 0.00 90 1014.3
20260906064546 77 232 0.0 0.0 0.00 0.00 0.00 91 1014.3
20260906064040 77 268 0.0 0.0 0.00 0.00 0.00 91 1014.3
20260906063536 77 200 0.0 0.0 0.00 0.00 0.00 91 1014.4
20260906063032 78 204 0.0 0.0 0.00 0.00 0.00 91 1014.4
20260906062527 78 199 0.0 0.0 0.00 0.00 0.00 91 1014.3
20260906062021 78 185 0.0 0.0 0.00 0.00 0.00 91 1014.3
20260906061518 78 200 0.0 0.0 0.00 0.00 0.00 91 1014.6
20260906061017 78 200 0.0 0.0 0.00 0.00 0.00 91 1014.4
20260906060513 78 232 0.0 0.0 0.00 0.00 0.00 91 1014.3
20260906060010 78 245 0.0 0.0 0.00 0.00 0.00 90 1014.5
20260906055505 78 194 0.0 0.0 0.00 0.00 0.00 90 1014.4
20260906055000 78 191 0.0 0.0 0.00 0.00 0.00 90 1014.4
20260906054455 78 199 0.0 0.0 0.00 0.00 0.00 90 1014.6
20260906053951 78 282 0.0 0.0 0.00 0.00 0.00 89 1014.7
20260906053447 78 154 0.0 0.0 0.00 0.00 0.00 89 1014.5
20260906052942 79 219 0.0 0.0 0.00 0.00 0.00 88 1014.4
20260906052438 79 269 0.0 0.0 0.00 0.00 0.00 87 1014.5
20260906051935 79 221 0.0 0.0 0.00 0.00 0.00 87 1014.5
20260906051430 79 217 0.0 0.0 0.00 0.00 0.00 86 1014.4
20260906050926 80 210 0.0 0.0 0.00 0.00 0.00 85 1014.2
20260906050425 80 304 0.0 0.0 0.00 0.00 0.00 85 1014.5
20260906045925 80 332 0.0 0.0 0.00 0.00 0.00 85 1014.6
20260906045423 80 274 0.0 0.0 0.00 0.00 0.00 84 1014.6
20260906044919 80 322 0.0 0.0 0.00 0.00 0.00 83 1014.4
20260906044414 80 315 0.0 0.0 0.00 0.00 0.00 83 1014.6
20260906043910 80 103 0.0 0.0 0.00 0.00 0.00 83 1014.5
20260906043405 80 317 0.0 0.0 0.00 0.00 0.00 82 1014.4
20260906042900 80 260 0.0 0.0 0.00 0.00 0.00 82 1014.6
20260906042359 81 255 0.0 0.0 0.00 0.00 0.00 84 1014.5
20260906041854 81 219 0.0 0.0 0.00 0.00 0.00 84 1014.5
20260906041350 81 168 0.0 0.0 0.00 0.00 0.00 84 1014.4
20260906040845 82 356 0.0 0.0 0.00 0.00 0.00 83 1014.4
20260906040341 81 359 0.0 0.0 0.00 0.00 0.00 83 1014.6
20260906035836 82 266 0.0 0.0 0.00 0.00 0.00 82 1014.4
20260906035331 82 176 0.0 0.0 0.00 0.00 0.00 82 1014.3
20260906034827 82 235 0.0 0.0 0.00 0.00 0.00 81 1014.1
20260906034321 82 153 0.0 0.0 0.00 0.00 0.00 81 1014.3
20260906033817 82 168 0.0 0.0 0.00 0.00 0.00 81 1014.0
20260906033316 82 207 0.0 0.0 0.00 0.00 0.00 80 1013.9
20260906032813 82 159 0.0 0.0 0.00 0.00 0.00 81 1013.9
20260906032308 82 139 0.0 0.0 0.00 0.00 0.00 80 1013.8
20260906031803 82 328 0.0 0.0 0.00 0.00 0.00 77 1013.7
20260906031259 82 266 0.0 0.0 0.00 0.00 0.00 76 1013.9
20260906030758 82 123 0.0 0.0 0.00 0.00 0.00 78 1013.8
20260906030254 83 233 0.0 0.0 0.00 0.00 0.00 79 1013.6
20260906025753 83 140 0.0 0.0 0.00 0.00 0.00 78 1013.7
20260906025248 83 151 0.0 0.0 0.00 0.00 0.00 77 1013.7
20260906024747 83 140 0.0 0.0 0.00 0.00 0.00 75 1013.8
20260906024245 83 63 0.0 0.0 0.00 0.00 0.00 73 1013.8
20260906023741 83 253 0.0 0.0 0.00 0.00 0.00 71 1013.6
20260906023237 83 283 0.0 0.0 0.00 0.00 0.00 70 1013.5
20260906022732 83 263 0.0 0.0 0.00 0.00 0.00 69 1013.7
20260906022227 83 264 0.0 0.0 0.00 0.00 0.00 69 1013.5
20260906021723 84 258 0.0 0.0 0.00 0.00 0.00 69 1013.4
20260906021222 84 236 0.0 0.0 0.00 0.00 0.00 68 1013.2
20260906020717 84 243 0.0 0.0 0.00 0.00 0.00 68 1013.2
20260906020211 85 246 0.0 0.0 0.00 0.00 0.00 67 1013.1
20260906015706 85 246 0.0 0.0 0.00 0.00 0.00 65 1013.0
20260906015205 85 1 0.0 0.0 0.00 0.00 0.00 64 1013.0
20260906014705 85 33 0.0 0.0 0.00 0.00 0.00 64 1012.9
20260906014201 85 347 0.0 0.0 0.00 0.00 0.00 66 1012.7
20260906013657 86 325 0.0 0.0 0.00 0.00 0.00 65 1012.8
20260906013152 87 355 0.0 0.0 0.00 0.00 0.00 63 1013.1
20260906012651 87 307 0.0 0.0 0.00 0.00 0.00 61 1012.9
20260906012146 87 53 0.0 0.0 0.00 0.00 0.00 60 1012.7
20260906011642 87 35 0.0 0.0 0.00 0.00 0.00 62 1012.6
20260906011142 87 355 0.0 0.0 0.00 0.00 0.00 63 1012.7
20260906010637 87 11 0.0 0.0 0.00 0.00 0.00 63 1012.6
20260906010133 87 310 0.0 1.0 0.00 0.00 0.00 62 1012.7
20260906005632 87 25 1.0 1.0 0.00 0.00 0.00 61 1012.6
20260906005127 88 5 1.0 1.0 0.00 0.00 0.00 61 1012.5
20260906004626 88 346 1.0 1.0 0.00 0.00 0.00 61 1012.5
20260906004121 89 319 1.0 1.0 0.00 0.00 0.00 61 1012.3
20260906003616 90 237 0.0 0.0 0.00 0.00 0.00 59 1012.5
20260906003112 90 2 0.0 1.0 0.00 0.00 0.00 57 1012.5
20260906002607 91 235 0.0 0.0 0.00 0.00 0.00 57 1012.8
20260906002101 92 250 0.0 0.0 0.00 0.00 0.00 56 1012.5
20260906001556 93 164 0.0 0.0 0.00 0.00 0.00 54 1012.4
20260906001051 93 214 0.0 0.0 0.00 0.00 0.00 53 1012.3
20260906000547 94 185 0.0 0.0 0.00 0.00 0.00 53 1012.3
20260906000042 95 221 0.0 0.0 0.00 0.00 0.00 52 1012.2
20260905235536 96 190 0.0 0.0 0.00 0.00 0.00 49 1012.5
20260905235031 97 182 0.0 0.0 0.00 0.00 0.00 46 1012.3
20260905234526 97 209 0.0 0.0 0.00 0.00 0.00 44 1012.2
20260905234021 97 169 0.0 0.0 0.00 0.00 0.00 43 1012.3
20260905233516 98 170 0.0 0.0 0.00 0.00 0.00 44 1012.4
20260905233015 98 13 1.0 1.0 0.00 0.00 0.00 41 1012.4
20260905232511 99 233 0.0 0.0 0.00 0.00 0.00 42 1012.4
20260905232007 99 256 0.0 0.0 0.00 0.00 0.00 42 1012.3
20260905231502 99 292 2.0 2.0 0.00 0.00 0.00 41 1012.6
20260905230958 99 218 2.0 2.0 0.00 0.00 0.00 40 1012.6
20260905230456 100 255 1.0 1.0 0.00 0.00 0.00 39 1012.3
20260905225954 100 177 1.0 1.0 0.00 0.00 0.00 39 1012.0
20260905225450 100 194 0.0 1.0 0.00 0.00 0.00 39 1012.1
20260905224945 100 208 2.0 2.0 0.00 0.00 0.00 38 1012.4
20260905224440 101 336 1.0 2.0 0.00 0.00 0.00 38 1012.2
20260905223939 100 274 1.0 1.0 0.00 0.00 0.00 38 1012.4
20260905223437 101 264 2.0 2.0 0.00 0.00 0.00 38 1012.2
20260905222932 101 39 1.0 2.0 0.00 0.00 0.00 38 1012.5
20260905222432 101 336 3.0 3.0 0.00 0.00 0.00 37 1012.4
20260905221928 103 308 5.0 7.0 0.00 0.00 0.00 37 1012.3
20260905221424 103 44 2.0 2.0 0.00 0.00 0.00 36 1012.5
20260905220920 102 217 0.0 1.0 0.00 0.00 0.00 35 1012.2
20260905220416 103 264 3.0 5.0 0.00 0.00 0.00 35 1012.5
20260905215915 103 184 0.0 1.0 0.00 0.00 0.00 35 1012.5
20260905215411 103 170 0.0 1.0 0.00 0.00 0.00 35 1012.5
20260905214907 103 324 2.0 2.0 0.00 0.00 0.00 35 1012.5
20260905214403 104 132 3.0 3.0 0.00 0.00 0.00 35 1012.4
20260905213857 103 263 1.0 1.0 0.00 0.00 0.00 36 1012.7
20260905213354 103 324 1.0 2.0 0.00 0.00 0.00 36 1012.6
20260905212854 103 263 2.0 5.0 0.00 0.00 0.00 37 1012.4
20260905212354 101 210 0.0 0.0 0.00 0.00 0.00 38 1012.8
20260905211848 100 287 2.0 3.0 0.00 0.00 0.00 39 1012.6
20260905211343 102 233 3.0 3.0 0.00 0.00 0.00 37 1012.9
20260905210839 104 268 4.0 5.0 0.00 0.00 0.00 35 1012.8
20260905210334 103 200 1.0 2.0 0.00 0.00 0.00 36 1012.6
20260905205832 104 282 2.0 2.0 0.00 0.00 0.00 36 1012.9
20260905205327 103 62 0.0 1.0 0.00 0.00 0.00 35 1012.9
20260905204827 103 55 3.0 3.0 0.00 0.00 0.00 34 1012.9
20260905204323 102 162 0.0 1.0 0.00 0.00 0.00 35 1012.8
20260905203821 102 223 3.0 3.0 0.00 0.00 0.00 36 1012.9
20260905203318 104 203 1.0 2.0 0.00 0.00 0.00 34 1013.1
20260905202813 104 127 0.0 1.0 0.00 0.00 0.00 33 1013.1
20260905202308 103 174 0.0 1.0 0.00 0.00 0.00 34 1013.2
20260905201803 103 189 1.0 1.0 0.00 0.00 0.00 35 1013.2
20260905201259 103 285 2.0 2.0 0.00 0.00 0.00 35 1013.4
20260905200753 102 326 0.0 0.0 0.00 0.00 0.00 36 1013.4
20260905200249 103 278 2.0 5.0 0.00 0.00 0.00 36 1013.4
20260905195747 104 244 1.0 2.0 0.00 0.00 0.00 35 1013.5
20260905195242 104 214 1.0 2.0 0.00 0.00 0.00 35 1013.7
20260905194738 104 122 2.0 2.0 0.00 0.00 0.00 36 1013.5
20260905194237 104 132 2.0 2.0 0.00 0.00 0.00 35 1013.7
20260905193737 103 116 2.0 3.0 0.00 0.00 0.00 36 1013.8
20260905193231 104 129 2.0 2.0 0.00 0.00 0.00 35 1013.9
20260905192727 103 226 0.0 1.0 0.00 0.00 0.00 35 1013.8
20260905192223 102 275 3.0 3.0 0.00 0.00 0.00 36 1014.1
20260905191722 103 184 1.0 2.0 0.00 0.00 0.00 36 1014.1
20260905191220 103 349 2.0 3.0 0.00 0.00 0.00 35 1014.1
20260905190719 102 87 3.0 3.0 0.00 0.00 0.00 37 1014.1
20260905190218 104 280 3.0 3.0 0.00 0.00 0.00 36 1014.1
20260905185717 103 184 1.0 1.0 0.00 0.00 0.00 38 1014.4
20260905185212 102 178 2.0 2.0 0.00 0.00 0.00 40 1014.3
20260905184707 101 197 2.0 2.0 0.00 0.00 0.00 40 1014.3
20260905184206 102 194 4.0 5.0 0.00 0.00 0.00 38 1014.3
20260905183700 103 181 5.0 6.0 0.00 0.00 0.00 38 1014.4
20260905183155 103 159 3.0 3.0 0.00 0.00 0.00 38 1014.7
20260905182655 102 140 3.0 3.0 0.00 0.00 0.00 40 1014.6
20260905182154 102 160 0.0 1.0 0.00 0.00 0.00 37 1014.8
20260905181650 102 129 3.0 3.0 0.00 0.00 0.00 37 1015.0
20260905181148 101 215 1.0 1.0 0.00 0.00 0.00 42 1014.9
20260905180643 99 167 3.0 3.0 0.00 0.00 0.00 46 1014.9
20260905180138 101 125 3.0 3.0 0.00 0.00 0.00 45 1015.0
20260905175632 100 199 3.0 3.0 0.00 0.00 0.00 42 1014.9
20260905175128 99 165 2.0 2.0 0.00 0.00 0.00 49 1015.1
20260905174624 100 196 4.0 5.0 0.00 0.00 0.00 44 1015.2
20260905174119 100 176 2.0 2.0 0.00 0.00 0.00 47 1015.2
20260905173615 99 256 4.0 5.0 0.00 0.00 0.00 43 1015.3
20260905173110 98 165 1.0 2.0 0.00 0.00 0.00 49 1015.6
20260905172608 98 165 3.0 3.0 0.00 0.00 0.00 49 1015.5
20260905172103 98 148 3.0 3.0 0.00 0.00 0.00 48 1015.5
20260905171600 97 153 2.0 2.0 0.00 0.00 0.00 48 1015.6
20260905171055 96 129 3.0 3.0 0.00 0.00 0.00 49 1015.6
20260905170552 96 150 3.0 3.0 0.00 0.00 0.00 52 1015.8
20260905170047 96 161 3.0 3.0 0.00 0.00 0.00 49 1015.7
20260905165542 95 159 3.0 3.0 0.00 0.00 0.00 53 1015.8
20260905165037 95 143 3.0 3.0 0.00 0.00 0.00 56 1016.0
20260905164532 95 117 3.0 3.0 0.00 0.00 0.00 54 1016.0
20260905164027 95 139 3.0 3.0 0.00 0.00 0.00 57 1016.1
20260905163522 95 148 3.0 3.0 0.00 0.00 0.00 56 1016.0
20260905163018 95 169 3.0 3.0 0.00 0.00 0.00 53 1015.9
20260905162514 95 179 3.0 3.0 0.00 0.00 0.00 52 1016.0
20260905162008 94 202 3.0 3.0 0.00 0.00 0.00 54 1016.3
20260905161503 94 209 2.0 2.0 0.00 0.00 0.00 55 1016.1
20260905161000 93 234 3.0 3.0 0.00 0.00 0.00 54 1015.8
20260905160454 94 262 3.0 5.0 0.00 0.00 0.00 53 1016.2
20260905155953 93 152 0.0 0.0 0.00 0.00 0.00 58 1016.1
20260905155448 93 133 1.0 2.0 0.00 0.00 0.00 56 1016.0
20260905154942 92 189 2.0 2.0 0.00 0.00 0.00 58 1016.0
20260905154437 91 148 2.0 2.0 0.00 0.00 0.00 60 1016.1
20260905153932 91 143 1.0 2.0 0.00 0.00 0.00 59 1016.2
20260905153429 90 187 1.0 2.0 0.00 0.00 0.00 59 1015.9
20260905152927 90 136 1.0 2.0 0.00 0.00 0.00 64 1016.2
20260905152427 89 166 1.0 1.0 0.00 0.00 0.00 63 1015.9
20260905151922 88 195 3.0 3.0 0.00 0.00 0.00 64 1016.2
20260905151418 88 184 2.0 2.0 0.00 0.00 0.00 67 1016.1
20260905150919 88 196 2.0 2.0 0.00 0.00 0.00 67 1016.1
20260905150418 88 157 3.0 3.0 0.00 0.00 0.00 70 1016.2
20260905145915 87 181 1.0 2.0 0.00 0.00 0.00 68 1016.0
20260905145409 87 171 0.0 0.0 0.00 0.00 0.00 69 1016.2
20260905144909 86 192 1.0 1.0 0.00 0.00 0.00 71 1016.0
20260905144405 86 168 0.0 0.0 0.00 0.00 0.00 73 1016.1
20260905143903 86 161 2.0 2.0 0.00 0.00 0.00 72 1015.9
20260905143357 86 143 2.0 2.0 0.00 0.00 0.00 72 1016.0
20260905142857 86 163 0.0 0.0 0.00 0.00 0.00 72 1015.8
20260905142355 85 144 0.0 0.0 0.00 0.00 0.00 74 1016.1
20260905141852 85 162 1.0 1.0 0.00 0.00 0.00 73 1015.8
20260905141347 85 163 1.0 1.0 0.00 0.00 0.00 73 1015.7
20260905140843 84 190 0.0 0.0 0.00 0.00 0.00 74 1015.9
20260905140337 84 193 0.0 0.0 0.00 0.00 0.00 74 1015.7
20260905135835 84 202 0.0 0.0 0.00 0.00 0.00 72 1015.6
20260905135326 84 178 0.0 0.0 0.00 0.00 0.00 73 1015.8
20260905134821 84 158 0.0 0.0 0.00 0.00 0.00 73 1015.8
20260905134314 82 115 0.0 0.0 0.00 0.00 0.00 78 1015.6
20260905133809 80 64 0.0 0.0 0.00 0.00 0.00 83 1015.7
20260905133305 79 170 0.0 0.0 0.00 0.00 0.00 87 1015.6
20260905132803 78 176 0.0 0.0 0.00 0.00 0.00 91 1015.6